OK1KZE-6 Weather Reports


Display with metric or nautical units.
time (UTC)temp
F
wind
direction
speed
MPH
gust
MPH
rain 1hr
in
rain 24hr
in
rain mn
in
humidity
%
barometer
mb
20201031222518 50 180 7.0 8.0 0.00 0.00 0.00 91 1019.5
20201031222011 50 180 7.0 8.0 0.00 0.00 0.00 91 1019.8
20201031221522 50 180 8.0 8.0 0.00 0.00 0.00 91 1020.4
20201031221008 51 180 6.0 8.0 0.00 0.00 0.00 91 1020.2
20201031220524 51 180 7.0 8.0 0.00 0.00 0.00 91 1020.2
20201031220041 51 180 8.0 8.0 0.00 0.00 0.00 91 1019.5
20201031215513 51 180 8.0 9.0 0.00 0.00 0.00 91 1019.7
20201031215037 51 180 8.0 9.0 0.00 0.00 0.00 91 1020.4
20201031214528 51 202 8.0 8.0 0.00 0.00 0.00 91 1020.1
20201031214052 50 180 7.0 7.0 0.00 0.00 0.00 91 1020.2
20201031213542 50 202 6.0 6.0 0.00 0.00 0.00 91 1019.9
20201031213027 50 180 4.0 6.0 0.00 0.00 0.00 91 1020.3
20201031212510 51 225 4.0 7.0 0.00 0.00 0.00 91 1020.4
20201031212020 50 225 5.0 6.0 0.00 0.00 0.00 91 1020.8
20201031211516 50 225 5.0 6.0 0.00 0.00 0.00 91 1020.0
20201031211011 50 225 5.0 6.0 0.00 0.00 0.00 91 1020.5
20201031210516 51 202 5.0 7.0 0.00 0.00 0.00 91 1021.1
20201031210019 51 202 7.0 8.0 0.00 0.00 0.00 91 1020.2
20201031205519 50 202 5.0 6.0 0.00 0.00 0.00 91 1019.9
20201031205022 50 202 6.0 6.0 0.00 0.00 0.00 91 1019.8
20201031204518 51 202 5.0 7.0 0.00 0.00 0.00 91 1020.5
20201031204024 51 180 6.0 7.0 0.00 0.00 0.00 91 1019.4
20201031203517 51 202 5.0 8.0 0.00 0.00 0.00 91 1020.2
20201031203010 51 202 6.0 7.0 0.00 0.00 0.00 91 1020.2
20201031202515 51 180 7.0 9.0 0.00 0.00 0.00 91 1019.8
20201031202011 51 180 7.0 10.0 0.00 0.00 0.00 91 1020.3
20201031201528 51 158 8.0 11.0 0.00 0.00 0.00 91 1019.8
20201031201010 51 158 10.0 11.0 0.00 0.00 0.00 91 1019.8
20201031200512 52 158 9.0 11.0 0.00 0.00 0.00 91 1020.0
20201031200008 52 180 10.0 11.0 0.00 0.00 0.00 90 1020.4
20201031195509 52 180 9.0 9.0 0.00 0.00 0.00 91 1020.1
20201031195008 52 158 8.0 9.0 0.00 0.00 0.00 91 1019.8
20201031194528 52 158 9.0 9.0 0.00 0.00 0.00 91 1020.0
20201031194006 52 158 7.0 9.0 0.00 0.00 0.00 91 1020.7
20201031193518 52 158 8.0 9.0 0.00 0.00 0.00 90 1020.8
20201031193027 52 158 8.0 10.0 0.00 0.00 0.00 91 1020.2
20201031192504 52 158 9.0 9.0 0.00 0.00 0.00 91 1019.8
20201031192018 52 180 7.0 9.0 0.00 0.00 0.00 90 1021.0
20201031191528 52 158 8.0 11.0 0.00 0.00 0.00 90 1020.1
20201031191020 52 158 8.0 10.0 0.00 0.00 0.00 91 1019.9
20201031190518 52 158 6.0 9.0 0.00 0.00 0.00 90 1020.9
20201031190020 52 180 8.0 8.0 0.00 0.00 0.00 90 1020.8
20201031185523 53 180 7.0 8.0 0.00 0.00 0.00 90 1019.8
20201031185008 53 202 6.0 7.0 0.00 0.00 0.00 89 1020.9
20201031184524 53 180 6.0 7.0 0.00 0.00 0.00 89 1019.8
20201031184042 53 202 7.0 8.0 0.00 0.00 0.00 90 1020.8
20201031183512 53 202 7.0 8.0 0.00 0.00 0.00 90 1020.2
20201031183022 53 180 7.0 8.0 0.00 0.00 0.00 90 1020.9
20201031182508 53 180 6.0 8.0 0.00 0.00 0.00 89 1020.3
20201031182015 53 180 8.0 8.0 0.00 0.00 0.00 89 1020.9
20201031181519 54 180 7.0 9.0 0.00 0.00 0.00 89 1021.0
20201031181009 54 180 8.0 9.0 0.00 0.00 0.00 90 1020.8
20201031180520 54 180 8.0 9.0 0.00 0.00 0.00 89 1020.4
20201031180026 53 180 7.0 8.0 0.00 0.00 0.00 90 1021.0
20201031175511 53 180 4.0 5.0 0.00 0.00 0.00 89 1020.3
20201031175006 53 225 4.0 4.0 0.00 0.00 0.00 90 1020.9
20201031174516 52 225 0.0 2.0 0.00 0.00 0.00 89 1020.3
20201031174007 52 248 1.0 2.0 0.00 0.00 0.00 89 1021.1
20201031173508 53 248 3.0 4.0 0.00 0.00 0.00 89 1020.9
20201031173031 53 248 0.0 2.0 0.00 0.00 0.00 90 1021.1
20201031172529 53 248 1.0 3.0 0.00 0.00 0.00 89 1021.0
20201031172011 53 270 3.0 3.0 0.00 0.00 0.00 89 1020.9
20201031171521 53 248 0.0 0.0 0.00 0.00 0.00 89 1020.5
20201031171024 53 248 0.0 0.0 0.00 0.00 0.00 89 1021.1
20201031170511 54 248 0.0 2.0 0.00 0.00 0.00 89 1021.0
20201031170035 54 248 0.0 3.0 0.00 0.00 0.00 89 1021.0
20201031165511 54 248 0.0 2.0 0.00 0.00 0.00 89 1021.2
20201031165009 54 248 2.0 4.0 0.00 0.00 0.00 89 1021.0
20201031164514 54 248 1.0 4.0 0.00 0.00 0.00 89 1021.7
20201031164020 54 248 2.0 6.0 0.00 0.00 0.00 89 1021.0
20201031163508 54 248 3.0 6.0 0.00 0.00 0.00 89 1020.9
20201031163022 55 202 5.0 6.0 0.00 0.00 0.00 89 1021.8
20201031162505 55 248 5.0 5.0 0.00 0.00 0.00 89 1021.2
20201031162020 55 248 4.0 4.0 0.00 0.00 0.00 89 1021.4
20201031161516 55 270 0.0 4.0 0.00 0.00 0.00 89 1021.2
20201031161022 55 248 2.0 5.0 0.00 0.00 0.00 89 1021.3
20201031160511 55 248 4.0 4.0 0.00 0.00 0.00 90 1020.0
20201031160024 55 248 2.0 2.0 0.00 0.00 0.00 90 1020.8
20201031155508 55 248 0.0 5.0 0.00 0.00 0.00 89 1021.5
20201031155031 56 248 5.0 6.0 0.00 0.00 0.00 89 1021.6
20201031154545 56 225 1.0 4.0 0.00 0.00 0.00 90 1020.9
20201031154009 56 248 4.0 4.0 0.00 0.00 0.00 89 1021.4
20201031153512 56 225 0.0 2.0 0.00 0.00 0.00 89 1021.1
20201031153020 56 225 0.0 4.0 0.00 0.00 0.00 90 1020.3
20201031152513 56 248 4.0 4.0 0.00 0.00 0.00 89 1021.1
20201031152007 56 248 3.0 6.0 0.00 0.00 0.00 89 1020.8
20201031151515 56 248 5.0 7.0 0.00 0.00 0.00 90 1021.0
20201031151005 56 248 2.0 5.0 0.00 0.00 0.00 89 1021.0
20201031150507 56 248 2.0 4.0 0.00 0.00 0.00 89 1021.5
20201031150024 56 225 4.0 4.0 0.00 0.00 0.00 90 1021.0
20201031145506 57 248 5.0 5.0 0.00 0.00 0.00 89 1021.6
20201031145008 57 225 1.0 5.0 0.00 0.00 0.00 89 1021.6
20201031144540 57 248 4.0 7.0 0.00 0.00 0.00 89 1021.4
20201031144009 57 225 5.0 5.0 0.00 0.00 0.00 89 1021.1
20201031143534 57 225 5.0 6.0 0.00 0.00 0.00 89 1022.0
20201031143021 57 225 6.0 6.0 0.00 0.00 0.00 89 1020.9
20201031142528 57 202 7.0 8.0 0.00 0.00 0.00 90 1021.7
20201031142009 57 202 8.0 8.0 0.00 0.00 0.00 89 1021.2
20201031141514 57 225 5.0 8.0 0.00 0.00 0.00 90 1021.0
20201031141045 57 225 6.0 8.0 0.00 0.00 0.00 89 1021.7
20201031140508 57 158 4.0 7.0 0.00 0.00 0.00 89 1021.5
20201031140024 57 202 3.0 7.0 0.00 0.00 0.00 90 1021.9
20201031135510 57 202 4.0 11.0 0.00 0.00 0.00 90 1021.4
20201031135030 57 225 9.0 10.0 0.00 0.00 0.00 90 1021.4
20201031134523 57 202 5.0 9.0 0.00 0.00 0.00 90 1022.2
20201031134019 57 202 5.0 7.0 0.00 0.00 0.00 90 1021.7
20201031133509 57 202 6.0 8.0 0.00 0.00 0.00 89 1021.7
20201031133026 57 225 4.0 6.0 0.00 0.00 0.00 90 1021.3
20201031132510 58 180 4.0 8.0 0.00 0.00 0.00 89 1021.7
20201031132022 58 180 6.0 7.0 0.00 0.00 0.00 90 1022.0
20201031131532 58 180 2.0 3.0 0.00 0.00 0.00 89 1022.1
20201031131012 58 202 0.0 5.0 0.00 0.00 0.00 89 1022.2
20201031130512 58 270 2.0 6.0 0.00 0.00 0.00 89 1021.5
20201031130024 58 270 5.0 6.0 0.00 0.00 0.00 90 1021.8
20201031125525 58 270 6.0 7.0 0.00 0.00 0.00 89 1021.9
20201031125032 58 270 2.0 4.0 0.00 0.00 0.00 90 1021.8
20201031124531 58 315 0.0 3.0 0.00 0.00 0.00 90 1022.2
20201031124026 58 315 3.0 7.0 0.00 0.00 0.00 90 1022.3
20201031123510 58 292 6.0 9.0 0.00 0.00 0.00 90 1021.4
20201031123022 59 292 8.0 11.0 0.00 0.00 0.00 89 1021.4
20201031122529 59 292 6.0 11.0 0.00 0.00 0.00 89 1022.0
20201031122022 59 270 8.0 10.0 0.00 0.00 0.00 90 1022.2
20201031121518 60 270 3.0 9.0 0.00 0.00 0.00 89 1021.5
20201031121009 60 248 3.0 9.0 0.00 0.00 0.00 89 1022.2
20201031120515 60 248 2.0 8.0 0.00 0.00 0.00 89 1022.1
20201031120023 60 270 4.0 8.0 0.00 0.00 0.00 90 1021.4
20201031115510 60 248 3.0 5.0 0.00 0.00 0.00 89 1022.9
20201031115009 59 270 3.0 3.0 0.00 0.00 0.00 90 1021.4
20201031114517 59 270 3.0 5.0 0.00 0.00 0.00 90 1021.8
20201031114008 58 202 4.0 7.0 0.00 0.00 0.00 90 1022.3
20201031113511 58 225 7.0 7.0 0.00 0.00 0.00 90 1022.5
20201031113025 58 248 2.0 7.0 0.00 0.00 0.00 90 1022.1
20201031112509 57 248 6.0 8.0 0.00 0.00 0.00 90 1022.2
20201031112025 57 248 8.0 8.0 0.00 0.00 0.00 91 1022.3
20201031111518 58 225 8.0 8.0 0.00 0.00 0.00 90 1021.9
20201031111010 57 248 5.0 7.0 0.00 0.00 0.00 91 1021.7
20201031110512 57 225 3.0 7.0 0.00 0.00 0.00 91 1022.2
20201031110021 57 202 7.0 11.0 0.00 0.00 0.00 91 1022.2
20201031105526 58 248 4.0 4.0 0.00 0.00 0.00 90 1021.9
20201031105006 57 248 3.0 3.0 0.00 0.00 0.00 90 1022.7
20201031104525 57 225 5.0 7.0 0.00 0.00 0.00 91 1022.1
20201031104005 57 202 7.0 8.0 0.00 0.00 0.00 91 1022.0
20201031103511 56 248 3.0 6.0 0.00 0.00 0.00 91 1023.4
20201031103019 56 248 2.0 7.0 0.00 0.00 0.00 91 1023.2
20201031102535 56 270 5.0 7.0 0.00 0.00 0.00 91 1022.8
20201031102008 55 270 2.0 7.0 0.00 0.00 0.00 91 1023.1
20201031101520 55 248 5.0 10.0 0.00 0.00 0.00 91 1023.3
20201031101022 56 270 7.0 7.0 0.00 0.00 0.00 91 1023.1
20201031100530 56 270 6.0 7.0 0.00 0.00 0.00 91 1023.6
20201031100023 56 248 4.0 9.0 0.00 0.00 0.00 91 1022.4
20201031095504 56 270 3.0 17.0 0.00 0.00 0.00 91 1023.5
20201031095020 57 270 6.0 14.0 0.00 0.00 0.00 91 1022.4
20201031094519 58 248 7.0 12.0 0.00 0.00 0.00 91 1023.2
20201031094040 58 270 4.0 10.0 0.00 0.00 0.00 91 1023.1
20201031093524 57 270 4.0 13.0 0.00 0.00 0.00 91 1023.3
20201031093020 56 248 4.0 8.0 0.00 0.00 0.00 92 1022.5
20201031092511 55 248 3.0 8.0 0.00 0.00 0.00 92 1023.6
20201031092007 54 248 6.0 6.0 0.00 0.00 0.00 92 1022.3
20201031091522 54 248 4.0 5.0 0.00 0.00 0.00 92 1023.2
20201031091008 54 225 2.0 8.0 0.00 0.00 0.00 92 1023.6
20201031090512 54 225 4.0 8.0 0.00 0.00 0.00 92 1023.2
20201031090032 54 248 4.0 6.0 0.00 0.00 0.00 92 1022.6
20201031085510 54 248 4.0 7.0 0.00 0.00 0.00 92 1022.6
20201031085008 54 270 3.0 9.0 0.00 0.00 0.00 92 1023.4
20201031084522 53 225 8.0 11.0 0.00 0.00 0.00 92 1022.7
20201031084006 53 270 11.0 11.0 0.00 0.00 0.00 92 1023.4
20201031083517 53 248 7.0 7.0 0.00 0.00 0.00 92 1022.6
20201031083023 53 225 4.0 10.0 0.00 0.00 0.00 92 1022.9
20201031082512 53 248 4.0 8.0 0.00 0.00 0.00 92 1022.7
20201031082022 53 248 3.0 10.0 0.00 0.00 0.00 92 1022.5
20201031081521 53 248 5.0 10.0 0.00 0.00 0.00 92 1022.8
20201031081008 53 248 6.0 7.0 0.00 0.00 0.00 92 1022.8
20201031080516 53 270 4.0 11.0 0.00 0.00 0.00 92 1023.3
20201031080028 53 225 4.0 8.0 0.00 0.00 0.00 92 1023.1
20201031075519 53 248 4.0 7.0 0.00 0.00 0.00 92 1022.8
20201031075012 53 248 5.0 5.0 0.00 0.00 0.00 92 1023.3
20201031074519 53 248 6.0 7.0 0.00 0.00 0.00 93 1023.1
20201031074025 53 248 6.0 9.0 0.00 0.00 0.00 92 1022.8
20201031073517 53 248 3.0 3.0 0.00 0.00 0.00 92 1021.8
20201031073022 53 225 6.0 10.0 0.00 0.00 0.00 92 1022.7
20201031072516 52 225 7.0 9.0 0.00 0.00 0.00 93 1022.9
20201031072021 52 202 4.0 11.0 0.00 0.00 0.00 93 1022.5
20201031071510 52 248 4.0 11.0 0.00 0.00 0.00 93 1022.1
20201031071019 52 248 7.0 10.0 0.00 0.00 0.00 92 1022.1
20201031070511 52 248 5.0 13.0 0.00 0.00 0.00 92 1022.3
20201031070019 52 248 6.0 10.0 0.00 0.00 0.00 92 1022.4
20201031065527 52 248 5.0 5.0 0.00 0.00 0.00 93 1022.4
20201031065015 52 225 4.0 7.0 0.00 0.00 0.00 92 1022.5
20201031064523 52 248 5.0 11.0 0.00 0.00 0.00 93 1021.9
20201031064006 52 248 2.0 5.0 0.00 0.00 0.00 93 1022.3
20201031063509 52 248 5.0 7.0 0.00 0.00 0.00 92 1021.8
20201031063020 52 225 2.0 9.0 0.00 0.00 0.00 93 1022.2
20201031062510 52 248 4.0 4.0 0.00 0.00 0.00 93 1021.8
20201031062006 52 248 5.0 5.0 0.00 0.00 0.00 93 1022.3
20201031061518 52 248 4.0 11.0 0.00 0.00 0.00 93 1022.0
20201031061010 52 225 4.0 11.0 0.00 0.00 0.00 93 1021.5
20201031060512 52 225 7.0 11.0 0.00 0.00 0.00 92 1021.9
20201031060021 52 248 6.0 10.0 0.00 0.00 0.00 93 1022.2
20201031055513 52 248 4.0 9.0 0.00 0.00 0.00 93 1021.5
20201031055022 52 202 7.0 7.0 0.00 0.00 0.00 92 1021.8
20201031054517 52 248 4.0 4.0 0.00 0.00 0.00 93 1022.6
20201031054010 52 248 5.0 6.0 0.00 0.00 0.00 93 1022.5
20201031053525 52 248 4.0 4.0 0.00 0.00 0.00 92 1021.9
20201031053025 52 248 5.0 10.0 0.00 0.00 0.00 93 1021.4
20201031052528 52 248 5.0 11.0 0.00 0.00 0.00 92 1021.7
20201031052018 52 248 4.0 14.0 0.00 0.00 0.00 93 1022.4
20201031051517 53 248 4.0 10.0 0.00 0.00 0.00 92 1021.7
20201031051020 53 270 7.0 14.0 0.00 0.00 0.00 93 1021.8
20201031050514 53 248 9.0 13.0 0.00 0.00 0.00 93 1021.0
20201031050020 53 248 6.0 16.0 0.00 0.00 0.00 92 1021.4
20201031045445 53 225 5.0 12.0 0.00 0.00 0.00 92 1021.4
20201031044958 53 248 5.0 13.0 0.00 0.00 0.00 93 1021.1
20201031044510 53 248 5.0 15.0 0.00 0.00 0.00 92 1021.8
20201031043942 53 248 4.0 9.0 0.00 0.00 0.00 93 1021.3
20201031043442 53 248 4.0 14.0 0.00 0.00 0.00 92 1021.9
20201031042942 53 270 8.0 13.0 0.00 0.00 0.00 93 1021.4
20201031042444 53 248 6.0 14.0 0.00 0.00 0.00 93 1022.3
20201031041944 53 270 9.0 11.0 0.00 0.00 0.00 93 1021.2
20201031041441 53 248 11.0 16.0 0.00 0.00 0.00 93 1021.6
20201031040945 53 292 12.0 15.0 0.00 0.00 0.00 92 1021.9
20201031040444 53 270 6.0 19.0 0.00 0.00 0.00 93 1021.1
20201031035942 53 248 8.0 18.0 0.00 0.00 0.00 93 1021.8
20201031035444 53 270 6.0 19.0 0.00 0.00 0.00 93 1021.6
20201031035024 53 270 10.0 19.0 0.00 0.00 0.00 93 1021.1
20201031034444 53 270 9.0 15.0 0.00 0.00 0.00 94 1021.3
20201031033941 53 248 8.0 25.0 0.00 0.00 0.00 93 1021.5
20201031033441 53 270 9.0 19.0 0.00 0.00 0.00 94 1020.9
20201031032941 53 270 7.0 18.0 0.00 0.00 0.00 94 1021.2
20201031032442 53 248 6.0 19.0 0.00 0.00 0.00 94 1021.3
20201031031944 53 292 9.0 17.0 0.00 0.00 0.00 94 1020.3
20201031031442 53 270 6.0 14.0 0.00 0.00 0.00 94 1021.8
20201031030954 53 270 6.0 17.0 0.00 0.00 0.00 94 1021.7
20201031030441 53 270 7.0 19.0 0.00 0.00 0.00 94 1021.7
20201031025941 53 248 5.0 14.0 0.00 0.00 0.00 94 1022.0
20201031025443 53 225 4.0 12.0 0.00 0.00 0.00 94 1020.7
20201031024947 53 248 8.0 16.0 0.00 0.00 0.00 94 1021.1
20201031024528 53 270 5.0 13.0 0.00 0.00 0.00 94 1020.7
20201031024047 53 248 8.0 15.0 0.00 0.00 0.00 94 1021.9
20201031023510 53 270 12.0 19.0 0.00 0.00 0.00 94 1021.8
20201031023034 53 270 10.0 18.0 0.00 0.00 0.00 94 1021.5
20201031022512 53 248 4.0 14.0 0.00 0.00 0.00 94 1020.9
20201031022007 53 248 8.0 18.0 0.00 0.00 0.00 94 1020.9
20201031021509 53 225 3.0 8.0 0.00 0.00 0.00 94 1021.5
20201031021007 53 248 6.0 9.0 0.00 0.00 0.00 94 1021.6
20201031020513 53 270 6.0 15.0 0.00 0.00 0.00 94 1021.3
20201031020010 53 270 7.0 9.0 0.00 0.00 0.00 94 1021.2
20201031015509 53 225 5.0 10.0 0.00 0.00 0.00 94 1021.1
20201031015017 53 248 4.0 9.0 0.00 0.00 0.00 94 1021.0
20201031014519 53 248 4.0 15.0 0.00 0.00 0.00 94 1020.9
20201031014008 53 270 6.0 15.0 0.00 0.00 0.00 94 1021.8
20201031013516 53 270 12.0 15.0 0.00 0.00 0.00 94 1021.3
20201031013027 53 225 5.0 16.0 0.00 0.00 0.00 94 1021.6
20201031012512 53 248 8.0 19.0 0.00 0.00 0.00 94 1021.2
20201031012016 53 270 9.0 17.0 0.00 0.00 0.00 94 1021.8
20201031011511 53 248 6.0 23.0 0.00 0.00 0.00 94 1021.3
20201031011010 53 270 4.0 14.0 0.00 0.00 0.00 95 1021.7
20201031010517 53 270 7.0 15.0 0.00 0.00 0.00 95 1021.1
20201031010019 53 270 6.0 12.0 0.00 0.00 0.00 95 1020.8
20201031005508 53 270 7.0 15.0 0.00 0.00 0.00 94 1022.3
20201031005011 53 248 8.0 15.0 0.00 0.00 0.00 95 1022.0
20201031004521 53 248 6.0 13.0 0.00 0.00 0.00 94 1021.1
20201031004011 53 270 4.0 13.0 0.00 0.00 0.00 95 1021.3
20201031003519 53 248 7.0 15.0 0.00 0.00 0.00 95 1021.4
20201031003022 53 248 8.0 15.0 0.00 0.00 0.00 95 1021.2
20201031002511 53 270 6.0 15.0 0.00 0.00 0.00 94 1022.0
20201031002019 53 248 9.0 14.0 0.00 0.00 0.00 95 1020.9
20201031001542 53 225 10.0 18.0 0.00 0.00 0.00 95 1021.0
20201031001006 53 248 10.0 20.0 0.00 0.00 0.00 95 1021.8
20201031000510 53 248 8.0 19.0 0.00 0.00 0.00 95 1021.2
20201031000010 53 270 5.0 20.0 0.00 0.00 0.00 95 1021.5
20201030235513 53 270 11.0 17.0 0.00 0.00 0.00 95 1021.6
20201030235006 53 225 4.0 18.0 0.00 0.00 0.00 95 1021.4
20201030234522 53 248 5.0 15.0 0.00 0.00 0.00 95 1021.3
20201030234005 53 248 3.0 13.0 0.00 0.00 0.00 95 1021.5
20201030233505 53 248 10.0 14.0 0.00 0.00 0.00 95 1021.2
20201030233025 53 248 6.0 12.0 0.00 0.00 0.00 95 1021.1
20201030232508 53 248 6.0 15.0 0.00 0.00 0.00 95 1021.2
20201030232027 53 248 10.0 15.0 0.00 0.00 0.00 95 1021.0
20201030231522 53 270 7.0 13.0 0.00 0.00 0.00 95 1021.3
20201030231012 53 270 9.0 15.0 0.00 0.00 0.00 96 1021.0
20201030230509 53 270 8.0 16.0 0.00 0.00 0.00 96 1021.2
20201030230023 53 248 7.0 20.0 0.00 0.00 0.00 95 1020.8
20201030225507 53 248 7.0 14.0 0.00 0.00 0.00 95 1021.2
20201030225005 53 225 8.0 12.0 0.00 0.00 0.00 95 1020.7
20201030224523 53 248 6.0 15.0 0.00 0.00 0.00 95 1020.9
20201030224011 53 270 11.0 13.0 0.00 0.00 0.00 95 1020.0
20201030223508 53 225 6.0 12.0 0.00 0.00 0.00 95 1021.1
20201030223019 53 248 6.0 13.0 0.00 0.00 0.00 95 1020.7